Regional Weather Roundup
Issued by NWS

Home | Current Version | Previous Version | Text Only | Print | Product List | Glossary On
Versions: 1 2 3 4 5 6 7 8 9 10 11 12 13 14 15 16 17 18 19 20 21 22 23 24 25 26 27 28 29 30 31 32 33 34 35 36 37 38 39 40 41 42 43 44 45 46 47 48 49 50
000
ASUS43 KMKX 011010
RWRWI

WISCONSIN REGIONAL WEATHER ROUNDUP
NATIONAL WEATHER SERVICE MILWAUKEE/SULLIVAN WI
400 AM CST SUN FEB 01 2015

NOTE: "FAIR" INDICATES FEW OR NO CLOUDS BELOW 12,000 FEET WITH NO
SIGNIFICANT WEATHER AND/OR OBSTRUCTIONS TO VISIBILITY.

WIZ001-002-006>008-014>016-023>028-011100-
NORTHWEST WISCONSIN

CITY           SKY/WX    TMP DP  RH WIND       PRES   REMARKS
SUPERIOR ARPT  LGT SNOW  11   8  88 NE8       30.36F VSB 1   WCI  -1
ASHLAND        CLOUDY    10   1  67 E8        30.36F WCI  -2
HAYWARD        CLOUDY     9   0  67 NE13      30.27S WCI  -7
SIREN          CLOUDY    13   7  74 NE8       30.27S WCI   2
CUMBERLAND     CLOUDY    12   1  62 NE18G24   30.21F WCI  -5
RICE LAKE      CLOUDY    13   3  64 NE15G24   30.24F WCI  -3
CHETEK         CLOUDY    13   4  67 NE8       30.23S WCI   1
LADYSMITH      CLOUDY    11   3  68 NE13G21   30.24F WCI  -4
EAU CLAIRE     LGT SNOW  15   9  76 NE15      30.19F WCI   0
MENOMONIE      CLOUDY    15   9  75 NE10      30.20F HAZE    WCI   3
NEW RICHMOND   CLOUDY    15   6  68 NE17G24   30.20F WCI  -2
OSCEOLA        CLOUDY    16   5  62 NE15G26   30.25S WCI   1
$$

WIZ003>005-009-010-017-018-011100-
NORTH CENTRAL WISCONSIN

CITY           SKY/WX    TMP DP  RH WIND       PRES   REMARKS
MANITOWISH WTR CLOUDY     2  -3  77 NE6       30.25F WCI  -9
ARBOR VITAE    CLOUDY     5  -1  76 NE9       30.24F WCI  -9
WOODRUFF       CLOUDY     5  -1  76 NE9       30.24F WCI  -9
RHINELANDER    CLOUDY     5  -2  72 NE9       30.22F WCI  -9
EAGLE RIVER    CLOUDY     4  -3  75 NE8       30.24F WCI -10
LAND O LAKES   CLOUDY     4  -1  80 NE7       30.26S WCI  -8
PHILLIPS       CLOUDY     5  -1  76 NE9G16    30.23F WCI  -9
TOMAHAWK       CLOUDY     6  -1  74 CALM      30.24F
MEDFORD        CLOUDY    10   2  71 E14G21    30.19S WCI  -7
MERRILL        CLOUDY     9   1  70 NE8       30.22F WCI  -3
$$

WIZ029-030-035-036-043>047-011100-
CENTRAL WISCONSIN

CITY           SKY/WX    TMP DP  RH WIND       PRES   REMARKS
WAUSAU         CLOUDY    10   2  69 NE10      30.21F WCI  -4
MOSINEE        LGT SNOW  12   5  73 NE21      30.21F WCI  -6
MARSHFIELD     LGT SNOW  13   7  77 E16       30.18S WCI  -3
STEVENS POINT  LGT SNOW  10   5  81 NE14      30.21F WCI  -7
WAUPACA        LGT SNOW  15   8  76 NE10      30.23F WCI   2
WAUTOMA        LGT SNOW  13   9  84 NE12G18   30.19F FOG     WCI  -1
WISC RAPIDS    LGT SNOW  12   6  77 E12       30.21S WCI  -2
CAMP DOUGLAS   LGT SNOW  14  14 100 NE13G21   30.16S FOG     WCI   0
$$

WIZ011>013-019>022-031-037>040-048>050-011100-
NORTHEAST WISCONSIN

CITY           SKY/WX    TMP DP  RH WIND       PRES   REMARKS
ANTIGO         CLOUDY     7   1  77 NE15      30.20F WCI -10
SHAWANO        CLOUDY    14   5  68 NE13      30.26S WCI   0
OCONTO         CLOUDY    12   5  73 MISG      30.27F
STURGEON BAY   CLOUDY    12   7  79 N12       30.27F WCI  -2
GREEN BAY      LGT SNOW  14   7  73 NE21G30   30.24F WCI  -4
MANITOWOC      LGT SNOW  16  13  88 N10       30.21F FOG     WCI   4
APPLETON       LGT SNOW  14   9  79 N16       30.20F WCI  -2
CLINTONVILLE   LGT SNOW  12   5  73 NE12G20   30.25S WCI  -2
OSHKOSH        LGT SNOW  14  10  84 NE21G28   30.18F VSB 1   WCI  -4
$$

WIZ032>034-041-042-053>061-011100-
SOUTHWEST WISCONSIN

CITY           SKY/WX    TMP DP  RH WIND       PRES   REMARKS
LA CROSSE      LGT SNOW  24  18  77 NE14G23   30.12S WCI  12
SPARTA         LGT SNOW  18  14  84 NE14G21   30.15S WCI   4
VIROQUA        CLOUDY    18  16  92 E26       30.05S WCI   0
BOSCOBEL       LGT SNOW  24  20  84 NE15G24   30.06F VSB 3/4 WCI  11
PRAIRIE DU CHI LGT SNOW  27  23  85 E8G16     30.03S WCI  18
PLATTEVILLE    CLOUDY    26  24  93 NE22G29   29.98F WCI  12
$$

WIZ056-057-062-063-064-067-068-011100-
SOUTH CENTRAL WISCONSIN

CITY           SKY/WX    TMP DP  RH WIND       PRES   REMARKS
REEDSBURG      LGT SNOW  15  11  85 NE13G18   30.12F WCI   1
BARABOO/DELLS  LGT SNOW  15  11  86 NE15G23   30.12F VSB 1   WCI   0
LONE ROCK      LGT SNOW  20  15  81 E15G30    30.10S WCI   6
MINERAL POINT  LGT SNOW  27  23  86 NE17G25   30.00F VSB 1   WCI  14
MADISON        LGT SNOW  19  15  84 NE18      30.10F FOG     WCI   4
MIDDLETON      CLOUDY    20  17  85 NE13G22   30.10S WCI   8
WATERTOWN      LGT SNOW  23  21  93 NE13      30.10F WCI  11
MONROE         LGT SNOW  27  27 100 NE18      30.01F WCI  13
JANESVILLE     LGT SNOW  30  28  93 E22G28    30.05F WCI  17
$$

WIZ051-052-058>065-066-070>072-011100-
SOUTHEAST WISCONSIN

CITY           SKY/WX    TMP DP  RH WIND       PRES   REMARKS
MILWAUKEE      LGT SNOW  26  22  84 NE20G29   30.12F FOG     WCI  12
WAUKESHA       LGT SNOW  23  21  93 NE17G28   30.12S WCI   9
MILWAUKEE/TIMM LGT SNOW  27  21  80 NE12G17   30.13F WCI  16
RACINE         LGT SNOW  27  24  89 NE20G28   30.12F VSB 1   WCI  13
BURLINGTON     LGT SNOW  26  24  94 NE14      30.09S WCI  14
KENOSHA        LGT SNOW  29  27  92 NE15      30.09F FOG     WCI  18
FOND DU LAC    LGT SNOW  15  10  80 NE20      30.18F WCI  -2
SHEBOYGAN      LGT SNOW  17  13  84 N14G23    30.17F FOG     WCI   3
WEST BEND      LGT SNOW  19  16  86 NE12      30.13F WCI   7
JUNEAU         LGT SNOW  17  14  88 NE16G23   30.14S WCI   1
$$

LSZ147-162-011100-
LAKE SUPERIOR

STATION/POSITION TIME  TEMP    WIND        PRES    WAVE
                       AIR SEA DIR/SP/G            HT/PER
                 (UTC) (F)     (DEG/KT/KT) (MB)    (FT/S)
DEVILS ISLAND    1000   11      60/ 15/ 20 1031.1S
PORT WING        0940   13      60/ 15/ 19 1028.4S
SAXON HARBOR     0900    9      CALM  /  8 1028.8S
$$

LMZ867-665-643>646-011100-
LAKE MICHIGAN

STATION/POSITION TIME  TEMP    WIND        PRES    WAVE
                       AIR SEA DIR/SP/G            HT/PER
                 (UTC) (F)     (DEG/KT/KT) (MB)    (FT/S)
NORTHPORT PIER   0928   15      10/ 16/ 20 1026.1F
SISTER BAY       0913   14      30/ 14/ 18   N/A
KEWAUNEE LAKESHO 0900   15      10/ 11/ 16 1023.7F
SHEBOYGAN LAKESH 1000   23      50/ 28/ 30 1022.6F
PORT WASHINGTON  0932   26      50/ 21/ 25 1022.0F
MILWAUKEE LAKESH 0900   27      50/ 25/ 29   N/A
KENOSHA   LAKESH 1000   30      70/ 19/ 22 1019.0F
$$

TC  - TEMPERATURE IN CELSIUS
VSB - VISIBILITY IN STATUTE MILES
WCI - WIND CHILL INDEX
HX  - HEAT INDEX




USA.gov is the U.S. government's official web portal to all federal, state and local government web resources and services.